EW0767 Weather Reports


time (UTC)temp
C
wind
direction
speed
KPH
gust
KPH
rain 1hr
cm
rain 24hr
cm
rain mn
cm
humidity
%
barometer
mb
20260502152257 9 64 0.0 1.6 0.00 0.38 0.38 86 1010.7
20260502151056 10 129 0.0 1.6 0.00 0.38 0.38 85 1010.4
20260502122301 7 205 0.0 0.0 0.00 0.38 0.38 98 1010.5
20260502121055 7 205 0.0 0.0 0.00 0.38 0.38 98 1010.7
20260502115301 7 205 0.0 0.0 0.00 0.38 0.38 98 1010.9
20260502112941 7 206 0.0 0.0 0.00 0.38 0.38 98 1010.7
20260502112258 7 205 0.0 0.0 0.00 0.38 0.38 98 1010.7
20260502111058 6 205 0.0 0.0 0.00 0.38 0.38 98 1010.5
20260502105946 6 206 0.0 0.0 0.00 0.38 0.38 98 1010.7
20260502105257 6 205 0.0 0.0 0.00 0.36 0.36 97 1010.9
20260502104057 6 205 0.0 0.0 0.00 0.30 0.30 97 1011.0
20260502102944 6 205 0.0 0.0 0.00 0.25 0.25 97 1010.8
20260502102301 6 194 0.0 0.0 0.00 0.18 0.18 97 1010.5
20260502101101 6 194 0.0 0.0 0.00 0.18 0.18 97 1010.3
20260502091056 6 194 0.0 0.0 0.00 0.05 0.05 96 1010.1
20260502065944 7 156 0.0 0.0 0.00 0.00 0.00 92 1010.2
20260502062942 8 156 0.0 0.0 0.00 0.00 0.00 90 1010.4
20260502062259 8 157 0.0 0.0 0.00 0.00 0.00 89 1010.4
20260502061059 8 157 0.0 0.0 0.00 0.00 0.00 88 1010.8
20260502055941 8 156 0.0 0.0 0.00 0.00 0.00 87 1010.5
20260502055258 8 157 0.0 0.0 0.00 0.00 0.00 86 1010.3
20260502052944 8 157 0.0 0.0 0.00 0.00 0.00 85 1010.3
20260502052255 8 157 0.0 0.0 0.00 0.00 0.00 83 1010.3
20260502051100 9 157 0.0 0.0 0.00 0.00 0.00 79 1010.5
20260502045942 9 156 0.0 0.0 0.00 0.00 0.00 79 1010.9
20260502045258 9 156 0.0 0.0 0.00 0.00 0.00 78 1011.0
20260502044100 9 157 0.0 0.0 0.00 0.00 0.00 78 1010.9
20260502042942 9 156 0.0 0.0 0.00 0.00 0.00 77 1010.9
20260502042259 9 157 0.0 0.0 0.00 0.00 0.00 75 1010.8
20260502041059 9 155 0.0 0.0 0.00 0.00 0.00 73 1010.5
20260502035941 9 155 0.0 0.0 0.00 0.00 0.00 73 1010.6
20260502035258 9 155 0.0 0.0 0.00 0.00 0.00 73 1010.5
20260502034057 9 155 0.0 0.0 0.00 0.00 0.00 73 1010.7
20260502032945 9 155 0.0 0.0 0.00 0.00 0.00 72 1010.7
20260502032256 9 155 0.0 0.0 0.00 0.00 0.00 70 1010.7
20260502031056 9 155 0.0 0.0 0.00 0.00 0.00 69 1010.7
20260502025944 8 155 0.0 0.0 0.00 0.00 0.00 68 1010.9
20260502025255 9 155 0.0 0.0 0.00 0.00 0.00 68 1010.9
20260502024100 9 155 0.0 0.0 0.00 0.00 0.00 65 1010.9
20260502022941 10 155 0.0 0.0 0.00 0.00 0.00 64 1010.8
20260502022258 10 155 0.0 0.0 0.00 0.00 0.00 64 1010.8
20260502021058 10 155 0.0 0.0 0.00 0.00 0.00 63 1010.8
20260502015939 9 205 0.0 0.0 0.00 0.00 0.00 61 1010.9
20260502015256 9 205 0.0 0.0 0.00 0.00 0.00 62 1010.8
20260502013944 10 205 0.0 0.0 0.00 0.00 0.00 60 1010.8
20260502012940 10 205 0.0 0.0 0.00 0.00 0.00 60 1010.7
20260502012257 10 205 0.0 0.0 0.00 0.00 0.00 59 1010.6
20260502005944 11 205 0.0 0.0 0.00 0.00 0.00 57 1010.3
20260502003940 11 204 0.0 0.0 0.00 0.00 0.00 56 1010.2
20260502002942 12 204 0.0 0.0 0.00 0.00 0.00 59 1010.1
20260502002300 12 204 0.0 0.0 0.00 0.00 0.00 56 1009.8
20260502001100 12 204 0.0 0.0 0.00 0.00 0.00 56 1009.7
20260501235941 12 204 0.0 0.0 0.00 0.00 0.00 52 1009.6
20260501235258 12 204 0.0 0.0 0.00 0.00 0.00 51 1009.5
20260501234058 13 204 0.0 0.0 0.00 0.00 0.00 48 1009.4
20260501232939 13 204 0.0 0.0 0.00 0.00 0.00 50 1009.3
20260501232257 13 204 0.0 0.0 0.00 0.00 0.00 47 1009.1
20260501231057 13 201 0.0 0.0 0.00 0.00 0.00 46 1009.0
20260501225255 14 217 0.0 0.0 0.00 0.00 0.00 46 1008.9
20260501224054 14 201 0.0 1.6 0.00 0.00 0.00 44 1009.0
20260501222942 15 228 0.0 0.0 0.00 0.00 0.00 46 1009.0
20260501222259 15 238 1.6 1.6 0.00 0.00 0.00 42 1008.9
20260501221058 15 273 1.6 3.2 0.00 0.00 0.00 43 1008.9
20260501215255 15 51 1.6 1.6 0.00 0.00 0.00 41 1008.8
20260501214054 15 210 0.0 1.6 0.00 0.00 0.00 42 1008.9
20260501212944 15 34 0.0 1.6 0.00 0.00 0.00 40 1008.9
20260501212255 15 195 1.6 4.8 0.00 0.00 0.00 43 1008.9
20260501211055 15 240 1.6 3.2 0.00 0.00 0.00 42 1009.1
20260501205943 16 166 0.0 1.6 0.00 0.00 0.00 39 1009.1
20260501205255 16 245 0.0 1.6 0.00 0.00 0.00 41 1009.1
20260501204055 16 61 0.0 3.2 0.00 0.00 0.00 39 1008.9
20260501202939 15 43 0.0 3.2 0.00 0.00 0.00 40 1008.9
20260501202256 16 232 0.0 1.6 0.00 0.00 0.00 41 1009.1
20260501195942 16 222 0.0 0.0 0.00 0.00 0.00 43 1008.9
20260501195253 17 218 1.6 3.2 0.00 0.00 0.00 39 1009.0
20260501194059 17 79 0.0 3.2 0.00 0.00 0.00 41 1009.2
20260501192256 16 229 1.6 3.2 0.00 0.00 0.00 44 1009.2
20260501185942 16 35 1.6 3.2 0.00 0.00 0.00 39 1009.4
20260501185259 16 194 1.6 3.2 0.00 0.00 0.00 42 1009.5
20260501184059 17 146 1.6 6.4 0.00 0.00 0.00 38 1009.7
20260501182940 17 105 0.0 1.6 0.00 0.00 0.00 42 1009.9
20260501181055 16 132 0.0 1.6 0.00 0.00 0.00 43 1009.9
20260501175943 16 77 1.6 3.2 0.00 0.00 0.00 46 1010.0
20260501175254 16 173 1.6 3.2 0.00 0.00 0.00 44 1010.1
20260501174054 16 203 0.0 0.0 0.00 0.00 0.00 44 1010.1
20260501172942 16 158 1.6 4.8 0.00 0.00 0.00 45 1010.2
20260501172258 15 98 1.6 3.2 0.00 0.00 0.00 47 1010.1
20260501165943 15 60 0.0 3.2 0.00 0.00 0.00 42 1010.3
20260501164053 15 131 1.6 3.2 0.00 0.00 0.00 42 1010.3
20260501162940 13 106 0.0 0.0 0.00 0.00 0.00 45 1010.3
20260501162256 13 58 0.0 3.2 0.00 0.05 0.00 45 1010.4